[Iaude] MPEC Y88: 2023 OE6 [a=2.53,e=0.65,i=40.3,H=19.85]

mpec at marsden.cfa.harvard.edu mpec at marsden.cfa.harvard.edu
Tue Dec 26 09:11:37 EST 2023


M.P.E.C. 2023-Y88                             Issued 2023 December 26, 14:10 UT

     The Minor Planet Electronic Circulars contain information on unusual
         minor planets, routine data on comets and natural satellites,
         and occasional editorial announcements.  They are published
    on behalf of Division F of the International Astronomical Union by the
          Minor Planet Center, Smithsonian Astrophysical Observatory,
                          Cambridge, MA 02138, U.S.A.
			  
             Prepared using the Tamkin Foundation Computer Network

                              MPC at CFA.HARVARD.EDU
            URL https://www.minorplanetcenter.net/    ISSN 1523-6714

                                    2023 OE6                                    


                           Revision to MPEC 2023-P17                            

Additional Observations:
     K23O06E 1C2019 06 24.41943 22 56 18.02 +34 04 03.2          21.7 GVEY088G96
     K23O06E 1C2019 06 24.42978 22 56 20.42 +34 04 08.3          20.7 GVEY088G96
     K23O06E  C2019 08 05.59535 03 53 22.385+13 47 32.50         20.8 wUEY088F51
     K23O06E  C2019 08 05.60120 03 53 25.478+13 47 02.70         21.0 wUEY088F51
     K23O06E  C2019 08 05.60702403 53 28.575+13 46 32.83         20.2 GVEY088F51
     K23O06E  C2019 08 05.61284503 53 31.658+13 46 03.10         20.4 GVEY088F51

Observer details:
F51 Pan-STARRS 1, Haleakala.  Observers J. Bulger, T. Lowe, A. Schultz, M.
    Willman, K. Chambers, E. Magnier.  Measurers K. Chambers, S. Chastel, T.
    de Boer, L. Denneau, J. Fairlamb, H. Flewelling, M. Huber, C.-C. Lin, E.
    Magnier, Y. Ramanjooloo, R. Wainscoat, R. Weryk.  1.8-m Ritchey-Chretien +
    CCD.
G96 Mt. Lemmon Survey.  Observer D. C. Fuls.  Measurers B. Gray, D. Rankin, F.
    C. Shelly.  1.5-m reflector + 10K CCD.

First and last observations above in comparison with prediction:
Residuals in seconds of arc (or two decimals in degrees), reference and Delta-T
190624 G96 3.99- 1.74-    190805 F51 4.60- 3.94-    MPO782822   -3.42 days

Orbital elements:
2023 OE6                                            PHA, Earth MOID = 0.0094 AU
Epoch 2023 Sept. 13.0 TT = JDT 2460200.5                Veres                   
M 358.87540              (2000.0)            P               Q                  
n   0.24419657     Peri.  224.26452     +0.87900349     -0.37817657             
a   2.5349906      Node   153.30787     +0.32084502     +0.91965688             
e   0.6495656      Incl.   40.27825     -0.35271991     -0.10589478             
P   4.04           H   19.85          G   0.15           U   0                  
Residuals in seconds of arc
190624 G96  0.2-  0.2-    230805 H36  0.3+  0.1+    230812 L18  0.4-  0.3+
190624 G96  0.1-  0.0     230805 H36  0.8+  0.2-    230812 L18  0.4+  0.4-
190805 F51  0.1+  0.1-    230807 J95  0.1-  0.2+    230812 L18  0.6-  1.0+
190805 F51  0.1-  0.0     230807 J95  0.1+  0.2+    230813 C95  0.4+  0.1-
190805 F51  0.1-  0.1-    230807 J95  0.2-  0.2-    230813 C95  0.1+  0.1-
190805 F51  0.2-  0.0     230807 J95  0.2+  0.1+    230813 C95  0.1-  0.2-
230729 L51  0.4+  0.2+    230807 L34  0.1+  0.0     230814 Z84  0.2-  0.2+
230730 L51  0.1+  0.5+    230807 L34  0.8+  0.2+    230814 Z84  0.1-  0.0
230730 L51  0.5-  0.1+    230807 Z84  0.3+  0.1+    230814 033  0.1-  0.0
230803 L51  0.2-  0.6-    230807 Z84  0.3-  0.1-    230814 033  0.1-  0.2+
230803 L51  0.2+  0.3+    230808 H21  0.7+  0.7+    230814 033  0.0   0.0
230803 L51  0.1-  0.2+    230808 H21  0.3+  0.2+    230815 C95  0.3+  0.1-
230803 L51  0.0   0.1-    230808 H21  0.1-  0.2+    230815 C95  0.3-  0.2-
230803 L51  0.1+  0.1-    230808 H21  0.2-  0.2+    230815 C95  0.2+  0.2-
230803 L51  0.2+  0.4+    230809 M45  0.2-  0.1+    230815 033  0.1+  0.0
230803 C43  0.0   0.6-    230809 M45  0.4+  0.1-    230815 033  0.2+  0.1-
230803 C43  0.1-  0.5-    230809 M45  0.2-  0.1+    230815 033  0.1+  0.1+
230803 C43  1.0+  0.6-    230809 H21  0.2-  0.0     230816 033  0.1+  0.0
230803 C40  0.1+  0.4+    230809 H21  0.2-  0.1+    230816 033  0.0   0.0
230803 C40  0.3+  0.2+    230809 H21  0.1+  0.1+    230816 033  0.1+  0.1+
230803 C40  0.3+  0.4+    230809 H21  0.1+  0.0     230816 M49  0.5+  0.2+
230803 C40  0.4+  0.1+    230809 Z80  0.3-  0.2+    230816 M49  0.1-  0.1-
230803 C40  0.3+  0.4-    230809 Z80  0.6+  0.9+    230816 M49  0.1+  0.5+
230803 C40  0.3+  0.0     230810 033  0.0   0.1+    230818 F52  0.2-  0.2+
230803 C40  0.6+  0.0     230810 033  0.2-  0.0     230818 F52  0.1-  0.0
230803 C40  0.2+  0.1-    230810 033  0.1-  0.2-    230818 F52  0.0   0.0
230803 C40  0.2+  0.1-    230811 K87  0.5+  0.2-    230818 F52  0.4+  0.4-
230803 J95  0.3-  0.5-    230811 K87  0.0   0.5+    230819 033  0.2-  0.2+
230803 J95  0.2+  0.4+    230811 033  0.1+  0.0     230819 033  0.0   0.0
230803 C40  0.0   0.1-    230811 033  0.1-  0.0     230819 033  0.1+  0.0
230803 J95  0.1+  0.4-    230811 033  0.0   0.1-    231117 T12  0.0   0.2+
230804 L51  0.1+  0.3-    230811 033  0.1+  0.2-    231117 T12  0.1-  0.2+
230804 L51  0.1-  0.2-    230811 033  0.1+  0.1-
230804 L51  0.3-  0.4+    230811 033  0.0   0.0

Ephemeris:
2023 OE6                 a,e,i = 2.53, 0.65, 40                  q = 0.8883
Date    TT    R. A. (2000) Decl.     Delta      r    Elong.  Phase     V
2023 11 26    09 51 10.5 -34 07 40   1.0208  1.3056    81.1    48.3    22.3
...
2023 12 11    09 50 33.3 -32 56 50   1.0084  1.4432    92.8    43.0    22.3
...
2023 12 19    09 45 45.4 -31 46 59   0.9929  1.5170   100.2    39.7    22.3
...
2023 12 25    09 40 07.7 -30 33 37   0.9801  1.5722   106.4    36.9    22.3
2023 12 26    09 39 01.9 -30 19 22   0.9780  1.5814   107.5    36.4    22.3
2023 12 27    09 37 53.4 -30 04 31   0.9759  1.5905   108.5    35.9    22.3
...
2024 01 02    09 30 10.5 -28 21 46   0.9646  1.6453   115.3    32.7    22.2
...
2024 01 10    09 17 58.2 -25 25 49   0.9553  1.7177   124.7    28.1    22.2
...
2024 01 25    08 52 31.1 -18 00 03   0.9718  1.8508   142.2    19.0    22.1

A. U. Tomatic                (C) Copyright 2023 MPC           M.P.E.C. 2023-Y88





More information about the Iaude mailing list